Jacksonville, IL

4:12 PM CST on December 08, 2016 (GMT -0600)
Jacksonville Municipal

Weather History for KIJX - March, 2013

Change the Weather History Date:

Saturday, March 9, 2013

  Actual Average (KSPI) Record (KSPI)
Temperature  
Mean Temperature 50 °F -  
Max Temperature 59 °F 48 °F 75 °F (1918)
Min Temperature 40 °F 26 °F 6 °F (1969)
Degree Days  
Heating Degree Days 16    
Moisture  
Dew Point 39 °F    
Average Humidity 71    
Maximum Humidity 90    
Minimum Humidity 53    
Precipitation  
Precipitation 0.66 in - - ()
Sea Level Pressure  
Sea Level Pressure 29.99 in    
Wind  
Wind Speed 12 mph (SE)    
Max Wind Speed 21 mph    
Max Gust Speed 25 mph    
Visibility 8 miles    
Events Rain    
Averages and records for this station are not official NWS values.
T = Trace of Precipitation, MM = Missing Value Source: NWS Daily Summary

Daily Weather History Graph

Daily Weather History Graph

Search for Another Location

Airport or City:

Trip Planner

Search our weather history database for the weather conditions in past years. The results will help you decide how hot, cold, wet, or windy it might be!

Date:

Astronomy

Mar. 09, 2013 Rise Set
Actual Time 6:21 AM CST 6:01 PM CST
Civil Twilight 5:54 AM CST 6:28 PM CST
Nautical Twilight 5:23 AM CST 7:00 PM CST
Astronomical Twilight 4:51 AM CST 7:31 PM CST
Moon 4:45 AM CST (3/9) 4:04 PM CST (3/9)
Length of Visible Light 12h 34m
Length of Day
11h 40m
Waning Crescent, 5% of the Moon is Illuminated
Mar 9
Waning Crescent
Mar 11
New
Mar 19
First Quarter
Mar 27
Full
Apr 2
Last Quarter

Hourly Weather History & Observations

Time (CST) Temp. Windchill Dew Point Humidity Pressure Visibility Wind Dir Wind Speed Gust Speed Precip Events Conditions
12:15 AM 42.8 °F 37.5 °F 35.2 °F 75% 30.20 in 10.0 mi SE 9.2 mph - N/A   Mostly Cloudy
12:35 AM 43.0 °F 37.7 °F 35.1 °F 74% 30.20 in 10.0 mi SE 9.2 mph - N/A   Overcast
12:55 AM 43.2 °F 37.9 °F 35.1 °F 73% 30.19 in 10.0 mi SE 9.2 mph - N/A   Overcast
1:15 AM 43.2 °F 37.4 °F 34.9 °F 73% 30.18 in 10.0 mi SE 10.4 mph - N/A   Overcast
1:35 AM 43.2 °F 37.9 °F 34.9 °F 73% 30.17 in 10.0 mi SE 9.2 mph - N/A   Overcast
1:55 AM 43.0 °F 38.2 °F 35.1 °F 74% 30.17 in 10.0 mi SE 8.1 mph - N/A Rain Light Rain
2:15 AM 43.3 °F 37.2 °F 34.7 °F 72% 30.16 in 10.0 mi SE 11.5 mph - N/A   Overcast
2:35 AM 43.3 °F 37.2 °F 34.7 °F 72% 30.15 in 10.0 mi SE 11.5 mph - N/A   Overcast
2:55 AM 43.7 °F 38.6 °F 34.3 °F 70% 30.14 in 10.0 mi SE 9.2 mph - N/A   Overcast
3:15 AM 43.7 °F 38.6 °F 34.0 °F 69% 30.14 in 10.0 mi SE 9.2 mph - N/A   Overcast
3:35 AM 43.3 °F 38.6 °F 33.8 °F 69% 30.14 in 10.0 mi SE 8.1 mph - N/A   Overcast
3:55 AM 42.8 °F 37.5 °F 34.3 °F 72% 30.14 in 10.0 mi ESE 9.2 mph - N/A   Mostly Cloudy
4:15 AM 42.4 °F 37.5 °F 34.7 °F 74% 30.14 in 10.0 mi ESE 8.1 mph - N/A   Mostly Cloudy
4:35 AM 43.0 °F 36.4 °F 33.8 °F 70% 30.14 in 10.0 mi SE 12.7 mph - N/A   Scattered Clouds
4:55 AM 42.8 °F 37.5 °F 33.8 °F 70% 30.14 in 10.0 mi ESE 9.2 mph - N/A   Mostly Cloudy
5:15 AM 42.4 °F 37.5 °F 34.2 °F 72% 30.14 in 10.0 mi ESE 8.1 mph - N/A   Overcast
5:35 AM 42.4 °F 38.8 °F 34.0 °F 72% 30.15 in 10.0 mi SE 5.8 mph - N/A   Overcast
5:55 AM 42.8 °F 38.6 °F 34.0 °F 71% 30.15 in 10.0 mi SE 6.9 mph - N/A Rain Light Rain
6:15 AM 42.1 °F 36.6 °F 34.9 °F 76% 30.15 in 10.0 mi SE 9.2 mph - 0.01 in Rain Light Rain
6:35 AM 41.7 °F 38.8 °F 35.8 °F 79% 30.16 in 5.0 mi SE 4.6 mph - 0.03 in Rain Rain
6:55 AM 41.0 °F 35.8 °F 36.5 °F 84% 30.15 in 3.0 mi ESE 8.1 mph - 0.09 in Rain Heavy Rain
7:15 AM 40.5 °F 34.6 °F 37.0 °F 88% 30.15 in 4.0 mi ESE 9.2 mph - 0.05 in Rain Rain
7:35 AM 40.1 °F 34.1 °F 37.4 °F 90% 30.14 in 4.0 mi ESE 9.2 mph - 0.11 in Rain Rain
7:55 AM 40.1 °F 33.2 °F 37.4 °F 90% 30.13 in 3.0 mi ESE 11.5 mph - 0.16 in Rain Light Rain
8:15 AM 40.3 °F 33.9 °F 37.0 °F 88% 30.13 in 4.0 mi ESE 10.4 mph - 0.02 in Rain Rain
8:35 AM 40.5 °F 34.6 °F 37.4 °F 89% 30.13 in 3.0 mi ESE 9.2 mph - 0.05 in Rain Rain
8:55 AM 41.0 °F 34.7 °F 37.4 °F 87% 30.13 in 4.0 mi SE 10.4 mph - 0.08 in Rain Rain
9:15 AM 41.0 °F 33.9 °F 37.4 °F 87% 30.12 in 4.0 mi SE 12.7 mph - 0.03 in Rain Heavy Rain
9:35 AM 41.0 °F 32.8 °F 37.4 °F 87% 30.09 in 3.0 mi SE 16.1 mph - 0.10 in Rain Rain
9:55 AM 41.2 °F 34.1 °F 37.8 °F 88% 30.08 in 4.0 mi SE 12.7 mph - 0.15 in Rain Light Rain
10:15 AM 41.9 °F 35.0 °F 38.3 °F 87% 30.07 in 4.0 mi SE 12.7 mph - 0.02 in Rain Light Rain
10:35 AM 41.9 °F 34.0 °F 38.3 °F 87% 30.06 in 2.5 mi SE 16.1 mph - 0.08 in Rain Rain
10:55 AM 42.1 °F 34.9 °F 39.0 °F 89% 30.05 in 4.0 mi SSE 13.8 mph - 0.13 in Rain Rain
11:15 AM 42.8 °F 36.6 °F 39.9 °F 90% 30.05 in 7.0 mi SSE 11.5 mph 17.3 mph N/A Rain Light Rain
11:35 AM 43.3 °F 36.5 °F 40.1 °F 88% 30.03 in 7.0 mi SE 13.8 mph 20.7 mph 0.02 in Rain Light Rain
11:55 AM 43.3 °F 36.8 °F 40.3 °F 89% 30.02 in 5.0 mi SE 12.7 mph 18.4 mph 0.04 in Rain Light Rain
12:15 PM 43.9 °F 36.5 °F 40.5 °F 88% 29.99 in 7.0 mi SE 16.1 mph - N/A   Overcast
12:35 PM 44.1 °F 35.9 °F 40.5 °F 87% 29.98 in 7.0 mi SE 19.6 mph 23.0 mph N/A   Overcast
12:55 PM 44.8 °F 38.0 °F 41.0 °F 87% 29.96 in 10.0 mi SE 15.0 mph - N/A   Overcast
1:15 PM 46.2 °F 39.8 °F 41.9 °F 85% 29.94 in 10.0 mi SE 15.0 mph - N/A   Overcast
1:35 PM 49.1 °F - 44.1 °F 83% 29.92 in 10.0 mi SE 17.3 mph 21.9 mph N/A   Scattered Clouds
1:55 PM 52.0 °F - 45.3 °F 78% 29.90 in 10.0 mi SE 16.1 mph - N/A   Clear
2:15 PM 53.8 °F - 45.1 °F 73% 29.88 in 10.0 mi SE 18.4 mph - N/A   Clear
2:35 PM 55.9 °F - 46.8 °F 71% 29.87 in 10.0 mi SE 15.0 mph - N/A   Clear
2:55 PM 57.4 °F - 45.5 °F 65% 29.86 in 10.0 mi SE 19.6 mph - N/A   Clear
3:15 PM 59.0 °F - 45.7 °F 61% 29.85 in 10.0 mi SSE 17.3 mph 25.3 mph N/A   Clear
3:35 PM 59.0 °F - 44.2 °F 58% 29.85 in 10.0 mi SSE 18.4 mph 24.2 mph N/A   Clear
3:55 PM 59.0 °F - 42.8 °F 55% 29.85 in 10.0 mi SSE 16.1 mph 21.9 mph N/A   Clear
4:15 PM 59.2 °F - 43.0 °F 55% 29.85 in 10.0 mi SSE 13.8 mph 24.2 mph N/A   Clear
4:35 PM 59.4 °F - 43.5 °F 56% 29.84 in 10.0 mi SSE 15.0 mph 23.0 mph N/A   Clear
4:55 PM 59.0 °F - 43.7 °F 57% 29.84 in 10.0 mi SE 12.7 mph 17.3 mph N/A   Clear
5:15 PM 57.9 °F - 43.3 °F 58% 29.84 in 10.0 mi SE 12.7 mph - N/A   Scattered Clouds
5:35 PM 57.2 °F - 43.5 °F 60% 29.83 in 10.0 mi SE 12.7 mph - N/A   Mostly Cloudy
5:55 PM 57.2 °F - 42.6 °F 58% 29.83 in 10.0 mi SE 11.5 mph 19.6 mph N/A   Overcast
6:15 PM 56.5 °F - 42.8 °F 60% 29.83 in 10.0 mi SE 13.8 mph - N/A   Overcast
6:35 PM 56.3 °F - 42.6 °F 60% 29.82 in 10.0 mi SE 11.5 mph - N/A   Overcast
6:55 PM 56.3 °F - 42.3 °F 59% 29.82 in 10.0 mi SE 15.0 mph - N/A   Mostly Cloudy
7:15 PM 55.9 °F - 42.3 °F 60% 29.82 in 10.0 mi SE 16.1 mph - N/A   Mostly Cloudy
7:35 PM 55.6 °F - 41.9 °F 60% 29.81 in 10.0 mi SE 16.1 mph - N/A   Scattered Clouds
7:55 PM 55.4 °F - 41.4 °F 59% 29.80 in 10.0 mi SE 20.7 mph - N/A   Clear
8:15 PM 55.0 °F - 41.4 °F 60% 29.79 in 10.0 mi SE 18.4 mph 23.0 mph N/A   Clear
8:35 PM 55.2 °F - 41.2 °F 59% 29.80 in 10.0 mi SSE 20.7 mph - N/A   Clear
8:55 PM 54.7 °F - 41.4 °F 61% 29.79 in 10.0 mi SSE 16.1 mph 21.9 mph N/A   Clear
9:15 PM 56.3 °F - 41.0 °F 57% 29.80 in 10.0 mi SSE 16.1 mph 21.9 mph N/A   Clear
9:35 PM 56.3 °F - 41.0 °F 57% 29.80 in 10.0 mi SSE 16.1 mph 25.3 mph N/A   Clear
9:55 PM 56.3 °F - 41.4 °F 57% 29.80 in 10.0 mi SE 10.4 mph 19.6 mph N/A   Mostly Cloudy
10:15 PM 55.9 °F - 41.4 °F 58% 29.79 in 10.0 mi SSE 11.5 mph 19.6 mph N/A Rain Light Rain
10:35 PM 57.2 °F - 40.8 °F 54% 29.80 in 10.0 mi SSE 16.1 mph 20.7 mph N/A   Mostly Cloudy
10:55 PM 57.6 °F - 40.5 °F 53% 29.79 in 10.0 mi SSE 16.1 mph 23.0 mph N/A   Overcast
11:15 PM 57.6 °F - 40.5 °F 53% 29.79 in 10.0 mi SSE 16.1 mph 21.9 mph N/A   Overcast
11:35 PM 57.4 °F - 40.6 °F 54% 29.78 in 10.0 mi South 16.1 mph 20.7 mph N/A   Overcast
11:55 PM 56.8 °F - 41.5 °F 57% 29.78 in 10.0 mi South 12.7 mph - 0.01 in Rain Light Rain